Flag for U.S.A. Weather past 2 weeks in Alexandria, Virginia, U.S.A.

Now
72 °F

Passing clouds.


Feels Like: 74 °F
Forecast: 67 / 86 °F
Wind: 6 mph from South

Location: Reagan National Airport

Current Time: Jun 30, 2015 at 1:22:59 AM

Latest Report: Jun 30, 2015 at 12:52 AM


Visibility: 10 mi

Pressure: 29.94 "Hg

Humidity: 73%

Dew point: 63 °F

Location of AlexandriaLocation

Historic Weather in Alexandria — Graph

°F

Alexandria temperature yesterday

Maximum temperature yesterday: 83 °F (at 4:52 PM)
Minimum temperature yesterday: 63 °F (at 5:52 AM)
Average temperature yesterday: 75 °F

Past Weeks' High & Low Weather Summary

 TemperatureHumidityPressure
High96 °F (Jun 23, 4:52 PM)89% (Jun 20, 8:56 PM)30.12 "Hg (Jun 20, 8:56 PM)
Low63 °F (Jun 29, 5:52 AM)36% (Jun 29, 4:52 PM)29.66 "Hg (Jun 28, 1:52 AM)
Average80 °F66%29.95 "Hg
* Reported Jun 14 11:52 PM — Jun 29 11:52 PM, Alexandria, Weather by CustomWeather, © 2015

Note: Actual official high and low records may vary slightly from our data, if they occured in-between our weather recording intervals... More about our weather records

Advertising

Alexandria weather history for previous 24 hours

 ConditionsComfort  
Time TempWeatherWind HumidityBarometerVisibility
11:52 PM
Mon, Jun 29
73 °FClear.5 mph69%29.95 "Hg10 mi
10:52 PM75 °FPassing clouds.7 mph62%29.95 "Hg10 mi
9:52 PM74 °FPassing clouds.6 mph74%29.95 "Hg10 mi
8:52 PM77 °FScattered clouds.6 mph58%29.94 "Hg10 mi
7:52 PM77 °FScattered clouds.8 mph60%29.93 "Hg10 mi
6:52 PM81 °FScattered clouds.9 mph45%29.92 "Hg10 mi
5:52 PM82 °FScattered clouds.9 mph43%29.93 "Hg10 mi
4:52 PM83 °FScattered clouds.10 mph36%29.94 "Hg10 mi
3:52 PM82 °FPartly sunny.13 mph43%29.94 "Hg10 mi
2:52 PM82 °FScattered clouds.13 mph46%29.95 "Hg10 mi
1:52 PM81 °FScattered clouds.8 mph44%29.96 "Hg10 mi
12:52 PM82 °FScattered clouds.5 mph40%29.97 "Hg10 mi
11:52 AM81 °FPassing clouds.8 mph42%29.98 "Hg10 mi
10:52 AM80 °FPassing clouds.10 mph42%29.98 "Hg10 mi
9:52 AM78 °FPassing clouds.8 mph42%29.99 "Hg10 mi
8:52 AM75 °FPassing clouds.9 mph48%29.98 "Hg10 mi
7:52 AM70 °FPassing clouds.6 mph61%29.97 "Hg10 mi
6:52 AM66 °FPassing clouds.6 mph68%29.97 "Hg10 mi
5:52 AM63 °FPassing clouds.5 mph73%29.96 "Hg10 mi
4:52 AM64 °FClear.9 mph73%29.94 "Hg10 mi
3:52 AM65 °FClear.5 mph70%29.92 "Hg10 mi
2:52 AM67 °FClear.6 mph66%29.90 "Hg10 mi
1:52 AM69 °FClear.7 mph59%29.89 "Hg10 mi
Weather by CustomWeather, © 2015

See weather overviewHow to use our weather pages